Location: Mouss�
(47.9236°N, 1.2701°W)
Time: 22:44:58
(UTC+00:00)

Meteor 2-4 Rocket - Pass Details

Date: 03 March 2021
Orbit: 799 x 908 km, 81.2° (Epoch: 20 April)

Event Time Altitude Azimuth Distance (km) Brightness Sun altitude
Rises 18:44:57 0° 351° (N) 3,485 7.0 -9.5°
Reaches altitude 10° 18:47:27 10° 357° (N) 2,557 6.3 -9.9°
Maximum altitude 18:53:10 53° 74° (ENE) 1,093 4.0 -10.9°
Drops below altitude 10° 18:58:56 10° 151° (SSE) 2,583 5.9 -11.9°
Sets 19:01:28 0° 156° (SSE) 3,524 6.6 -12.3°
